This is the latest recevied weather packets stored in our database for station/object N8ESC. If no packets are shown the sender has not sent any weather packets the latest 10 day(s).
| Time | Temp. | Humidity | Pressure | Rain* | Wind** | Luminosity | Snow |
|---|---|---|---|---|---|---|---|
| 1777697440 | 0.56° C | 58% | 1017.1 hPa | 0 mm | - | 0 W/m² | - |
| 1777697137 | 0.56° C | 59% | 1017.1 hPa | 0 mm | - | 0 W/m² | - |
| 1777696833 | 0.56° C | 59% | 1016.8 hPa | 0 mm | - | 0 W/m² | - |
| 1777696531 | 0.56° C | 60% | 1017 hPa | 0 mm | - | 0 W/m² | - |
| 1777696227 | 0.56° C | 60% | 1017 hPa | 0 mm | - | 0 W/m² | - |
| 1777695922 | 0.56° C | 59% | 1017.2 hPa | 0 mm | - | 0 W/m² | - |
| 1777695620 | 1.11° C | 59% | 1017.2 hPa | 0 mm | - | 0 W/m² | - |
| 1777695318 | 1.11° C | 58% | 1017.1 hPa | 0 mm | - | 0 W/m² | - |
| 1777695015 | 1.11° C | 59% | 1017 hPa | 0 mm | - | 0 W/m² | - |
| 1777694711 | 1.11° C | 59% | 1017.1 hPa | 0 mm | - | 0 W/m² | - |
| 1777694409 | 1.11° C | 59% | 1017.2 hPa | 0 mm | - | 0 W/m² | - |
| 1777694103 | 1.67° C | 59% | 1017.2 hPa | 0 mm | - | 0 W/m² | - |
| 1777693801 | 1.67° C | 57% | 1017.1 hPa | 0 mm | - | 0 W/m² | - |
| 1777693499 | 2.22° C | 53% | 1017.1 hPa | 0 mm | - | 0 W/m² | - |
| 1777693198 | 2.22° C | 53% | 1017.1 hPa | 0 mm | - | 0 W/m² | - |
| 1777692895 | 1.67° C | 54% | 1017.1 hPa | 0 mm | - | 0 W/m² | - |
| 1777692591 | 1.67° C | 55% | 1017.2 hPa | 0 mm | - | 0 W/m² | - |
| 1777692288 | 1.67° C | 56% | 1017 hPa | 0 mm | - | 0 W/m² | - |
| 1777691985 | 1.67° C | 56% | 1017.2 hPa | 0 mm | - | 0 W/m² | - |
| 1777691684 | 2.22° C | 56% | 1017.2 hPa | 0 mm | - | 0 W/m² | - |
| 1777691381 | 2.22° C | 55% | 1017.4 hPa | 0 mm | - | 0 W/m² | - |
| 1777691079 | 2.78° C | 54% | 1017.2 hPa | 0 mm | - | 0 W/m² | - |
| 1777690777 | 2.78° C | 53% | 1017.3 hPa | 0 mm | - | 0 W/m² | - |
| 1777690474 | 2.78° C | 53% | 1017.1 hPa | 0 mm | - | 0 W/m² | - |
| 1777690171 | 2.78° C | 52% | 1017.3 hPa | 0 mm | - | 0 W/m² | - |
* Rain latest hour (hover to see other rain measurements)
** Current wind speed in m/s (hover to see current wind gust speed)